Regional Weather Roundup
Issued by NWS Albany, NY

Home | Current Version | Previous Version | Graphics & Text | Print | Product List | Glossary On
Versions: 1 2 3 4 5 6 7 8 9 10 11 12 13 14 15 16 17 18 19 20 21 22 23 24 25 26 27 28 29 30 31 32 33 34 35 36 37 38 39 40 41 42 43 44 45 46 47 48 49 50
000
ASUS41 KALY 061710
RWRALY

NEW YORK STATE HOURLY WEATHER ROUNDUP
NATIONAL WEATHER SERVICE ALBANY NY
100 PM EDT MON JUL 06 2015

NOTE: "FAIR" INDICATES FEW OR NO CLOUDS BELOW 12,000 FEET WITH NO
SIGNIFICANT WEATHER AND/OR NO OBSTRUCTIONS TO VISIBILITY.

NYZ032-033-038>043-046>054-057>066-NYZ062>081-061800-
EAST


CITY           SKY/WX    TMP DP  RH WIND       PRES   REMARKS
ALBANY         MOSUNNY   82  59  45 CALM      30.17R
GLENS FALLS    SUNNY     80  61  52 VRB6      30.16S
POUGHKEEPSIE   PTSUNNY   82  66  58 SE3       30.15S
NEWBURGH       PTSUNNY   79  68  69 VRB6      30.18R
MONTGOMERY     CLOUDY    80  69  69 NW3       30.16R
WHITE PLAINS   PTSUNNY   80  64  58 S8G16     30.17S
ISLIP          PTSUNNY   80  64  58 S10       30.16F
NEW YORK CITY  CLOUDY    82  61  48 S13G21    30.15F
CENTRAL PARK   PTSUNNY   82  63  52 VRB5      30.19S
$$

NYZ005>009-017-018-044>046-055-056-061800-
CENTRAL


CITY           SKY/WX    TMP DP  RH WIND       PRES   REMARKS
FULTON         MOSUNNY   80  66  62 S5        30.13F
SYRACUSE       CLOUDY    82  67  60 E8        30.13F
ROME           MOSUNNY   83  60  45 CALM      30.16F
ELMIRA         CLOUDY    77  68  73 CALM      30.13S
BINGHAMTON     CLOUDY    72  64  76 SE5       30.18F
MONTICELLO     CLOUDY    75  64  69 S3        30.22R
$$

NYZ026>034-041>043-061800-
NORTH


CITY           SKY/WX    TMP DP  RH WIND       PRES   REMARKS
WATERTOWN      SUNNY     83  60  45 SW8       30.11F
FORT DRUM      NOT AVBL
MASSENA        SUNNY     82  60  47 S5        30.12F
SARANAC LAKE   SUNNY     77  49  37 S6        30.18S
PLATTSBURGH    SUNNY     77  62  59 SE10      30.14F
$$

NYZ001>004-010>016-019>021-061800-
WEST


CITY           SKY/WX    TMP DP  RH WIND       PRES   REMARKS
NIAGARA FALLS  MOSUNNY   81  63  54 VRB5      30.06F
BUFFALO        MOSUNNY   83  63  50 E8        30.06F
DUNKIRK        LGT RAIN  74  68  81 NE5       30.08F
JAMESTOWN      PTSUNNY   73  66  78 SE6       30.13F
WELLSVILLE     CLOUDY    71  64  78 S5        30.19F
ROCHESTER      MOSUNNY   82  67  60 VRB5      30.09F
PENN YAN       PTSUNNY   79  67  66 S7        30.14F
$$

             KEY
       WCI = WIND CHILL INDEX
       VSB = VISIBILITY
       HX  = HEAT INDEX
$$


USA.gov is the U.S. government's official web portal to all federal, state and local government web resources and services.